Location: Fort Wayne
(41.1310°N, 85.1290°W)
Time: 13:27:54
(UTC-04:00)

Oscar 19 - Visible Passes

Search period start: 26 April 2017 00:00
Search period end: 06 May 2017 00:00
Orbit: 774 x 790 km, 98.6° (Epoch: 24 April)

Date Brightness Start Highest point End Pass type
(mag) Time Alt. Az. Time Alt. Az. Time Alt. Az.
26 Apr 11.8 02:48:26 10° NNE 02:52:13 38° ENE 02:52:13 38° ENE visible
26 Apr 12.0 04:28:23 10° NNW 04:32:26 23° WNW 04:32:47 23° WNW visible
27 Apr 12.6 02:17:18 10° NE 02:20:06 21° ENE 02:20:06 21° ENE visible
27 Apr 11.2 03:55:57 10° N 04:00:39 43° WNW 04:00:39 43° WNW visible
28 Apr 13.3 01:47:47 10° ENE 01:47:58 10° ENE 01:47:58 10° ENE visible
28 Apr 10.8 03:23:56 10° NNE 03:28:32 69° N 03:28:32 69° N visible
28 Apr 12.7 05:05:59 10° NW 05:07:38 11° WNW 05:09:05 10° WNW visible
29 Apr 11.5 02:52:15 10° NNE 02:56:24 44° ENE 02:56:24 44° ENE visible
29 Apr 12.1 04:32:22 10° NNW 04:36:16 22° WNW 04:36:58 21° WNW visible
30 Apr 12.4 02:21:04 10° NE 02:24:16 23° ENE 02:24:16 23° ENE visible
30 Apr 11.3 03:59:52 10° N 04:04:43 40° WNW 04:04:50 40° WNW visible
01 May 13.1 01:51:06 10° ENE 01:52:09 12° ENE 01:52:09 12° ENE visible
01 May 10.7 03:27:48 10° N 03:32:42 75° NNW 03:32:42 75° NNW visible
01 May 12.8 05:10:25 10° NW 05:11:27 11° WNW 05:12:28 10° WNW visible
02 May 11.3 02:56:05 10° NNE 03:00:34 50° ENE 03:00:34 50° ENE visible
02 May 12.2 04:36:22 10° NNW 04:40:05 20° WNW 04:41:08 19° W visible
03 May 12.3 02:24:49 10° NE 02:28:26 26° E 02:28:26 26° E visible
03 May 11.4 04:03:48 10° N 04:08:33 37° WNW 04:09:00 36° W visible
04 May 13.0 01:54:34 10° ENE 01:56:18 13° E 01:56:18 13° E visible
04 May 10.6 03:31:41 10° N 03:36:52 73° WNW 03:36:52 73° WNW visible
05 May 11.0 02:59:55 10° NNE 03:04:44 56° E 03:04:44 56° E visible
05 May 12.3 04:40:22 10° NNW 04:43:54 19° WNW 04:45:17 17° W visible
